Airfield :
LOGIN :

Register | Disclaimer

   EN    FR    IT 

 










Legend :    VFR   Marginal VFR   IFR   Intensive IFR   Very Intensive IFR
Visi :
Ceiling :
>= 8 km
>= 3000ft
5 to 8 km
1000 to 3000 ft
1500m to 5 km
500 to 1000 ft
800 to 1500m
200 to 500 ft
< 800m
< 200 ft
Symbols :   Thunderstorms  Fog  Heavy snow  Heavy precipitations  Wind > 20 kt
SIGMETs :     Misc.  Thunderstorms  Icing  Turbulence  Mountain Waves  Volcanic Ashes







- Airport Elevation : 512 ft
- IATA code : URO
- Download approach charts


LFOP - Rouen Vallée de Seine

CURRENT METAR :
  • 160030Z AUTO 00000KT 8000 NSC 15/14 Q1019

EXPIRED METARs :
  • 160000Z AUTO VRB01KT 9999 BKN026 15/14 Q1019
  • 152330Z AUTO 00000KT 9999 OVC027 15/15 Q1019
  • 152300Z AUTO 00000KT 9999 OVC025 15/14 Q1019
  • 152230Z AUTO 30001KT 9999 SCT025 15/14 Q1019
  • 152200Z AUTO 29003KT CAVOK 15/14 Q1019

TAF TAF LFOP
Valid from the 15 at 18:00 until the 16 at 18:00 UTC


151700Z 1518/1618 29006KT 9999 BKN030
BECMG 1600/1603 3000 BR
BECMG 1604/1607 9999 NSW
ATIS : +33 2 35 80 80 34
Met : +33 2 32 86 52 80
No reported NOTAMs for that airfield.



MET'MAP, your aeronautical weather chart ! - Copyright ORBIFLY December 2007 - Disclaimer

ORBIFLY MET'MAP TEAM :

Programming & Development : Alexandra Zaïnal
Concept & Development : Baudouin d'Aumeries
Co-Development & Prog : Marc-Olivier Méhu
Technical & hardware support : Manuel Goepfert

Contact : metmap@orbifly.com




SOURCES & CREDITS :

   NOAA